Temp
12 12 12 12 12 12 12 12 12 12 13 13 13 13 13 13 13 13 13 12 12 12 13 13 12 12 12 12 12 12 12 13 13 13 13 13 13 12 12 12 11 11 11 11 10
12 12 12 12 12 12 12 12 12 13 13 13 13 13 13 14 14 14 12 12 12 12 13 13 13 13 13 13 13 13 13 14 13 13 13 13 12 13 12 13 12 12 11 10 10
12 12 12 12 12 12 12 12 13 13 13 13 13 14 14 14 14 13 13 12 12 12 13 13 13 14 14 14 14 14 13 13 13 13 13 13 12 13 13 12 12 12 11 11 10
12 12 12 12 13 13 13 13 13 13 13 13 13 14 14 14 13 14 13 12 12 12 13 13 14 13 14 14 14 14 14 14 14 13 13 13 13 13 13 12 12 12 11 10 10
11 12 12 12 13 13 13 13 13 13 13 14 14 14 14 14 14 13 13 13 13 12 13 13 13 13 13 14 14 15 14 14 15 14 13 13 13 13 13 12 13 12 11 10 10
12 12 12 12 13 13 13 14 14 14 14 14 14 14 14 14 14 14 13 13 13 13 14 13 13 12 13 13 14 15 14 15 14 14 14 13 13 13 13 13 13 12 12 11 10
12 12 12 13 13 13 13 14 14 14 14 14 14 14 14 14 14 14 14 14 14 13 14 13 13 13 13 14 14 15 14 15 15 14 14 14 14 14 13 13 12 12 12 11 10
12 12 13 13 13 13 13 14 14 14 14 14 15 15 14 14 15 14 14 14 14 13 13 13 12 12 13 13 14 14 15 15 15 15 15 14 15 14 14 14 13 13 12 11 11
13 13 13 13 13 13 13 14 14 14 14 14 15 15 14 15 15 15 14 14 13 13 13 12 12 12 13 13 14 15 15 15 15 15 15 14 15 15 15 14 13 13 13 12 12
13 13 13 13 13 13 13 14 14 14 14 15 15 15 14 14 14 14 14 14 13 13 12 12 12 12 13 13 14 15 15 15 16 16 15 15 15 15 15 15 14 13 13 13 13
12 13 13 14 14 13 13 13 13 14 14 14 15 15 14 14 14 14 13 13 12 12 12 12 12 13 14 14 15 14 14 14 15 16 15 16 15 16 16 15 14 13 14 13 14
12 13 13 13 14 14 13 13 13 13 15 14 15 15 14 14 14 13 13 12 11 11 12 11 13 14 14 14 14 14 14 15 17 16 15 16 16 16 16 16 16 15 15 14 14
12 13 13 13 13 13 13 12 12 13 14 16 15 15 13 13 13 13 13 12 12 11 12 12 15 14 14 14 14 15 15 16 16 17 16 16 17 17 17 16 16 15 15 14 14
12 12 12 13 13 13 13 12 12 13 14 15 15 15 14 13 14 13 13 12 11 12 12 12 14 14 14 14 15 15 16 16 16 16 16 17 16 16 17 17 16 16 15 15 15
12 12 12 12 13 12 12 12 12 13 11 15 15 15 14 14 13 14 13 12 13 13 12 14 14 14 14 15 15 16 16 16 16 16 16 16 16 17 17 17 17 16 15 15 15
12 12 12 12 12 12 12 12 12 12 12 15 15 15 14 14 14 13 13 12 12 13 13 13 14 14 15 15 16 16 16 16 16 16 15 17 16 18 18 18 17 17 16 16 15
12 12 12 12 12 12 12 12 11 11 14 15 15 15 14 14 14 13 12 12 12 13 13 14 14 15 15 15 16 16 16 15 13 12 12 16 16 17 18 18 18 17 17 16 15
12 12 12 12 12 12 11 12 12 13 14 14 15 15 15 15 15 14 13 13 13 13 13 13 14 15 15 15 16 16 16 15 11 10 13 16 16 18 18 18 18 17 17 17 15
12 12 12 12 12 12 11 11 14 13 13 13 14 14 14 14 14 14 14 15 14 14 13 14 14 16 16 16 16 16 16 16 16 15 14 16 17 18 18 18 18 18 17 17 17
11 11 11 10 11 11 11 12 13 13 13 14 14 14 14 14 14 14 14 15 15 15 15 15 14 16 16 17 16 16 16 16 15 13 12 15 17 18 18 18 18 17 17 18 17
10 11 10 10 10 10 11 11 12 13 12 12 13 13 13 13 14 14 14 15 15 15 15 15 15 17 16 16 16 16 16 16 16 15 12 10 16 18 18 18 18 18 18 18 17
10 10 10 9 10 10 11 10 10 12 13 12 12 13 13 13 13 13 14 14 15 14 15 16 15 15 17 17 16 17 17 16 16 15 16 15 17 17 18 18 17 17 17 17 17
10 9 9 9 9 8 9 9 10 10 12 12 12 13 13 12 12 13 13 13 14 14 14 15 14 15 15 16 16 16 16 16 16 17 16 15 17 17 17 17 17 17 17 16 17
9 8 8 7 7 8 8 9 10 11 11 11 11 12 12 12 12 12 12 13 13 14 14 14 15 15 15 16 16 15 15 16 15 15 16 16 17 17 17 17 16 17 16 16 16
9 9 8 7 7 8 8 8 9 10 10 10 11 11 10 11 11 11 12 12 12 13 14 14 14 14 14 15 15 14 14 15 15 14 15 15 15 16 16 16 16 16 16 15 15
8 8 8 8 8 8 8 8 8 9 9 9 9 10 9 9 9 9 10 11 11 12 13 12 12 13 13 13 14 14 14 14 15 14 14 14 14 15 15 15 15 16 16 15 15
7 7 8 7 7 7 7 7 7 7 8 8 8 8 9 8 8 8 9 10 10 10 11 11 10 11 11 12 12 13 14 13 14 14 14 14 13 14 15 14 14 15 15 15 15
Height
3177 3177 3176 3176 3176 3175 3175 3175 3175 3175 3175 3175 3175 3176 3177 3178 3180 3183 3186 3190 3192 3194 3195 3196 3197 3197 3197 3198 3197 3196 3199 3198 3197 3195 3196 3196 3196 3193 3193 3193 3190 3189 3189 3185 3185
3177 3176 3176 3175 3175 3175 3174 3174 3174 3174 3174 3175 3175 3175 3176 3177 3179 3182 3186 3187 3190 3192 3194 3195 3196 3197 3196 3196 3197 3198 3198 3197 3197 3196 3196 3196 3195 3194 3192 3192 3190 3189 3189 3185 3186
3176 3176 3175 3175 3174 3174 3174 3173 3174 3174 3174 3174 3174 3174 3175 3176 3179 3179 3181 3185 3188 3191 3193 3194 3196 3196 3194 3195 3196 3197 3199 3198 3197 3196 3195 3195 3194 3193 3192 3191 3189 3188 3187 3188 3186
3176 3175 3175 3174 3174 3173 3173 3173 3173 3173 3173 3174 3174 3174 3175 3177 3181 3179 3181 3184 3186 3189 3192 3194 3195 3195 3194 3194 3195 3198 3198 3196 3196 3196 3196 3195 3194 3193 3191 3189 3186 3188 3187 3187 3186
3176 3175 3174 3174 3173 3173 3172 3172 3172 3172 3172 3173 3173 3174 3175 3177 3179 3179 3180 3182 3184 3187 3191 3193 3195 3195 3194 3194 3196 3196 3197 3197 3197 3197 3196 3196 3194 3192 3191 3187 3185 3186 3187 3186 3185
3175 3174 3174 3173 3173 3172 3172 3171 3171 3171 3172 3172 3172 3173 3175 3177 3178 3178 3179 3180 3183 3186 3189 3192 3195 3195 3192 3191 3194 3195 3195 3195 3195 3194 3194 3194 3193 3192 3190 3188 3185 3186 3186 3186 3185
3175 3174 3173 3172 3172 3171 3171 3170 3170 3170 3171 3171 3171 3173 3174 3176 3176 3178 3177 3179 3181 3185 3188 3192 3193 3193 3192 3188 3191 3192 3194 3194 3194 3193 3193 3193 3192 3190 3188 3187 3187 3186 3185 3185 3185
3174 3173 3172 3171 3171 3171 3170 3170 3169 3169 3169 3170 3171 3172 3173 3174 3175 3177 3177 3178 3180 3183 3187 3190 3192 3191 3189 3190 3190 3191 3191 3190 3192 3192 3192 3193 3190 3188 3187 3184 3185 3185 3183 3184 3184
3173 3172 3171 3170 3170 3169 3169 3169 3168 3168 3168 3168 3170 3171 3172 3173 3174 3175 3178 3178 3180 3183 3187 3189 3189 3188 3189 3189 3190 3189 3187 3190 3189 3190 3190 3190 3187 3187 3186 3185 3184 3183 3182 3183 3184
3173 3171 3170 3169 3169 3168 3168 3168 3167 3167 3167 3167 3168 3171 3171 3172 3172 3173 3175 3177 3179 3182 3185 3186 3186 3185 3186 3188 3188 3187 3188 3187 3185 3186 3186 3185 3184 3185 3185 3185 3184 3182 3182 3182 3183
3171 3170 3169 3167 3167 3166 3167 3167 3169 3168 3165 3166 3167 3167 3168 3168 3169 3171 3172 3174 3177 3181 3182 3185 3184 3182 3184 3186 3186 3186 3185 3186 3185 3184 3182 3181 3181 3182 3183 3183 3182 3181 3180 3181 3182
3170 3168 3167 3166 3165 3164 3165 3165 3165 3165 3163 3163 3163 3164 3165 3165 3166 3168 3170 3173 3174 3176 3180 3183 3180 3181 3184 3185 3185 3185 3184 3182 3182 3182 3182 3180 3179 3181 3179 3177 3178 3179 3180 3180 3182
3168 3166 3165 3164 3163 3163 3162 3163 3163 3161 3161 3160 3159 3161 3163 3164 3164 3166 3168 3170 3172 3175 3177 3178 3179 3181 3182 3182 3183 3182 3182 3182 3182 3181 3179 3179 3176 3176 3178 3176 3175 3175 3177 3178 3179
3166 3164 3163 3162 3164 3161 3161 3161 3161 3161 3160 3159 3158 3159 3160 3161 3163 3164 3166 3170 3171 3173 3176 3176 3176 3178 3180 3181 3182 3181 3180 3181 3180 3179 3177 3177 3167 3169 3171 3171 3169 3170 3173 3174 3176
3164 3162 3161 3160 3160 3160 3161 3160 3159 3161 3160 3159 3158 3159 3159 3161 3162 3162 3164 3168 3170 3171 3174 3171 3173 3176 3176 3176 3178 3178 3179 3179 3177 3175 3173 3172 3172 3159 3163 3164 3164 3164 3168 3170 3174
3161 3160 3159 3158 3158 3159 3158 3158 3160 3162 3158 3156 3157 3157 3157 3158 3160 3161 3163 3167 3169 3171 3171 3168 3169 3171 3171 3173 3174 3176 3176 3176 3176 3174 3172 3167 3171 3158 3159 3158 3158 3161 3163 3166 3170
3159 3157 3156 3155 3156 3156 3157 3158 3161 3159 3159 3159 3155 3155 3156 3157 3159 3160 3163 3164 3166 3168 3166 3167 3164 3165 3167 3168 3171 3171 3172 3173 3175 3174 3169 3167 3167 3156 3155 3154 3152 3154 3160 3163 3167
3156 3155 3154 3153 3153 3154 3155 3159 3158 3157 3158 3158 3155 3156 3155 3155 3155 3156 3157 3160 3163 3164 3165 3165 3160 3160 3163 3164 3166 3167 3170 3171 3176 3175 3165 3164 3158 3152 3148 3151 3151 3154 3158 3160 3162
3152 3152 3151 3151 3151 3152 3155 3155 3154 3155 3156 3155 3155 3155 3156 3157 3158 3157 3156 3155 3157 3159 3162 3160 3157 3157 3159 3159 3161 3163 3164 3168 3168 3166 3166 3159 3154 3150 3146 3150 3152 3154 3155 3157 3157
3150 3150 3149 3150 3150 3151 3153 3152 3153 3155 3155 3155 3155 3156 3156 3155 3156 3155 3154 3152 3152 3154 3155 3156 3156 3152 3154 3152 3156 3159 3161 3163 3164 3165 3166 3157 3153 3146 3146 3148 3150 3152 3154 3156 3156
3148 3149 3150 3149 3150 3150 3150 3150 3151 3154 3155 3154 3152 3151 3151 3151 3151 3151 3151 3153 3152 3152 3150 3151 3154 3150 3151 3153 3154 3156 3157 3158 3160 3161 3161 3162 3154 3150 3151 3150 3150 3151 3152 3153 3154
3146 3147 3147 3148 3150 3148 3148 3148 3148 3147 3148 3148 3147 3147 3146 3146 3146 3147 3147 3148 3148 3147 3143 3145 3146 3146 3146 3149 3151 3151 3152 3153 3155 3156 3155 3155 3153 3148 3148 3151 3150 3149 3150 3151 3153
3144 3145 3145 3146 3147 3146 3145 3144 3144 3145 3144 3144 3144 3144 3143 3143 3142 3141 3142 3142 3141 3141 3140 3139 3138 3142 3143 3145 3147 3148 3149 3150 3149 3150 3150 3152 3150 3148 3147 3148 3147 3148 3149 3150 3152
3144 3143 3143 3144 3144 3144 3142 3142 3141 3142 3142 3141 3140 3138 3137 3137 3138 3135 3134 3136 3138 3135 3135 3135 3135 3134 3135 3138 3141 3142 3143 3146 3148 3149 3147 3147 3145 3146 3146 3145 3145 3148 3149 3150 3152
3141 3141 3140 3142 3142 3142 3143 3142 3139 3138 3137 3134 3135 3135 3132 3131 3130 3129 3129 3129 3132 3131 3131 3130 3130 3131 3132 3132 3133 3135 3138 3141 3141 3144 3143 3146 3142 3142 3142 3142 3143 3146 3146 3148 3149
3137 3137 3138 3138 3138 3138 3138 3137 3135 3134 3134 3132 3131 3132 3129 3128 3127 3125 3125 3125 3125 3128 3127 3126 3126 3124 3124 3128 3129 3128 3130 3133 3136 3139 3140 3142 3140 3138 3139 3138 3140 3141 3142 3144 3146
3133 3132 3132 3133 3132 3132 3133 3131 3130 3129 3131 3130 3128 3127 3127 3126 3123 3124 3123 3122 3122 3122 3125 3125 3123 3122 3121 3122 3121 3122 3124 3127 3129 3132 3134 3137 3135 3133 3132 3133 3136 3137 3138 3139 3140
Wind_Speed
3 4 4 3 3 3 2 2 1 2 3 5 5 7 9 11 13 14 12 11 9 6 15 14 10 4 4 5 11 5 5 11 6 5 1 4 4 4 8 6 5 6 7 5 13
4 4 5 4 4 4 3 2 1 1 2 3 3 4 5 7 8 7 14 13 11 8 16 15 11 9 8 8 8 11 5 8 6 5 4 5 3 9 6 13 9 14 10 5 13
4 4 5 5 4 4 4 3 3 2 1 1 1 2 2 3 4 11 14 15 13 10 17 17 11 11 9 6 3 5 10 6 7 8 4 3 2 5 10 11 11 9 5 6 8
5 5 5 5 4 4 4 4 4 3 3 2 2 2 2 3 5 6 10 15 14 13 20 19 11 7 8 11 5 5 8 5 6 5 5 4 6 6 9 11 15 7 4 9 8
5 5 5 5 5 4 4 4 4 4 3 3 4 4 3 4 6 5 9 11 14 14 19 17 12 6 8 8 10 5 3 2 7 2 3 6 6 8 7 12 15 10 12 8 8
6 6 6 5 5 5 4 4 4 4 4 4 4 3 3 3 5 7 5 8 12 15 21 20 9 2 4 12 8 4 5 7 7 6 4 5 8 8 8 9 13 11 8 5 7
7 7 6 6 5 6 5 5 5 5 5 5 5 4 2 5 7 6 4 8 12 14 21 17 5 3 5 5 6 3 8 12 14 12 11 4 7 8 12 9 8 10 7 5 5
8 8 8 7 6 6 6 6 7 7 7 7 7 5 2 6 4 4 5 7 12 13 21 17 6 7 8 13 11 12 9 14 14 12 11 4 2 7 10 11 6 8 6 6 5
8 8 8 9 8 7 7 7 8 8 9 10 9 7 6 6 6 4 6 8 10 12 23 18 12 11 14 15 14 11 14 13 19 16 6 10 4 5 11 11 11 10 7 8 8
9 8 8 8 8 8 8 8 8 9 11 11 11 9 6 5 6 8 6 11 9 12 22 22 16 11 14 16 11 6 11 23 11 10 11 9 11 7 12 14 9 12 9 8 9
10 9 8 8 8 9 9 9 9 11 12 13 11 7 9 7 6 6 6 10 10 8 20 23 16 16 10 16 10 17 23 25 22 14 15 8 11 5 11 15 14 15 13 12 8
11 10 9 9 7 8 9 9 10 13 13 10 11 11 13 11 9 5 8 17 17 16 9 13 17 4 7 9 13 17 24 26 7 9 15 10 13 16 15 20 19 17 10 12 9
12 11 10 9 8 6 8 9 9 13 16 8 11 6 16 13 12 9 10 14 19 19 15 16 3 2 7 9 15 13 20 20 20 15 11 16 23 25 19 21 22 23 14 13 12
12 11 10 9 8 7 8 8 9 8 8 3 2 5 15 17 10 12 13 9 17 16 11 14 3 11 15 18 14 22 11 16 19 13 15 18 28 26 23 17 23 28 23 15 10
12 12 10 9 7 5 5 7 7 1 5 1 2 4 5 11 5 5 17 13 9 15 17 15 11 14 21 17 16 18 15 16 10 15 20 24 20 32 16 15 19 29 29 19 11
13 11 10 8 7 6 7 7 5 3 5 4 3 3 4 10 9 6 14 16 12 11 21 26 20 22 19 16 19 15 18 18 13 14 13 26 10 14 9 15 17 22 29 22 17
12 10 9 7 6 5 7 10 6 5 4 6 9 9 5 6 12 13 12 22 21 13 23 23 26 23 22 22 16 14 11 7 4 4 10 13 13 33 23 9 7 23 21 23 23
11 8 7 6 7 7 8 12 5 2 7 13 14 10 6 8 13 13 14 24 22 17 13 14 16 15 16 22 21 14 16 10 6 3 11 30 9 20 17 9 6 15 12 15 24
9 7 6 5 9 8 11 15 7 1 12 17 7 13 10 11 9 16 19 19 19 16 19 9 14 5 12 26 27 26 20 14 18 24 11 13 17 17 9 11 10 11 15 16 19
7 4 1 1 6 8 12 17 10 4 11 11 11 4 7 7 7 23 20 19 26 23 22 20 23 8 6 9 23 20 5 15 7 2 5 9 17 11 16 18 14 14 10 11 20
6 1 8 3 2 4 11 16 14 7 8 12 14 12 13 13 11 12 6 23 19 25 31 28 27 14 15 9 22 24 21 12 11 7 5 1 10 13 10 10 9 12 13 9 13
4 2 2 4 8 10 9 7 9 5 4 17 16 20 16 17 18 14 11 12 7 12 22 39 28 31 20 15 14 21 16 17 15 12 12 10 15 9 12 11 9 7 4 7 11
3 6 4 3 6 13 8 12 13 13 10 14 9 15 18 19 16 6 13 14 15 10 10 6 38 30 31 23 18 13 20 25 24 20 22 8 13 7 16 11 9 4 2 2 7
3 6 11 10 14 15 16 11 14 13 14 10 7 8 15 21 22 19 22 15 9 13 9 13 10 17 30 31 14 8 5 6 6 8 16 28 22 14 13 10 11 17 13 10 9
5 10 13 16 19 17 14 13 15 16 15 16 15 9 10 15 16 18 26 29 19 15 15 15 16 18 14 12 17 17 16 14 13 11 4 16 11 8 6 6 14 13 11 11 11
8 11 15 20 19 21 13 11 8 13 15 14 12 12 12 8 7 11 17 20 20 16 12 5 6 14 18 18 23 27 24 22 25 21 11 17 15 7 5 6 10 16 19 17 13
8 10 10 9 14 20 16 11 11 14 16 15 15 16 16 12 13 13 18 21 23 19 14 13 6 9 9 15 18 23 29 21 22 23 18 17 6 11 14 8 11 15 18 20 22
Wind_Direction
319 316 318 324 324 326 321 300 251 226 233 240 241 239 232 226 223 216 192 193 188 165 152 138 119 86 68 67 347 342 273 24 56 57 131 119 139 167 210 234 247 284 312 333 347
322 317 313 312 310 308 308 303 294 233 219 229 234 236 232 227 223 203 187 188 184 181 163 160 156 137 93 85 306 289 289 359 16 8 43 149 120 261 243 310 281 299 277 309 342
330 322 316 315 311 306 300 294 286 267 249 241 231 231 218 203 176 176 194 177 184 186 172 171 172 112 88 33 291 222 280 322 3 17 29 34 247 327 323 313 319 321 302 316 354
342 333 325 318 312 306 301 295 285 273 259 249 235 224 194 145 125 186 179 186 185 188 175 173 181 120 53 22 37 214 263 79 354 322 349 3 301 318 318 318 313 320 272 351 16
343 338 332 325 319 311 299 286 281 276 268 258 248 239 225 179 167 143 173 193 193 182 174 173 151 90 17 7 351 265 19 176 339 175 203 285 293 297 293 300 320 328 345 10 5
334 332 329 326 321 313 301 288 278 274 268 262 256 248 233 202 205 169 163 182 186 185 172 157 116 6 337 318 299 327 272 293 273 256 251 275 285 269 274 272 318 321 348 6 353
328 322 318 317 319 314 309 298 284 274 267 265 267 261 245 227 177 197 183 183 184 182 171 153 144 268 288 225 216 212 291 269 264 255 294 299 296 259 265 271 287 311 344 337 328
328 320 313 308 306 302 304 299 288 280 271 267 266 270 248 254 223 162 215 172 180 182 160 165 185 225 275 260 213 278 275 260 258 259 285 271 308 260 274 270 280 305 310 291 284
335 321 312 305 299 294 291 290 287 283 277 272 271 273 262 286 280 227 184 181 176 179 167 168 207 222 216 241 250 238 256 278 277 261 230 225 328 322 280 255 248 278 299 271 285
341 330 316 301 293 285 282 281 282 279 272 273 271 269 262 270 265 240 219 191 160 179 178 191 213 241 229 227 237 222 288 315 254 239 224 233 263 295 271 265 247 258 277 279 318
338 331 321 307 287 275 274 278 279 279 284 279 275 255 233 252 251 236 226 199 160 205 198 201 233 231 218 207 252 287 295 294 300 254 233 237 273 301 279 264 243 241 261 270 301
327 328 317 314 297 274 265 273 281 278 281 278 271 252 234 228 238 233 232 189 189 218 215 211 239 188 196 219 266 283 292 303 333 326 240 247 283 297 278 291 273 259 280 270 266
324 319 317 308 307 274 245 249 266 289 303 302 255 224 206 233 254 243 241 199 198 213 216 221 143 184 249 257 271 284 288 290 304 292 286 254 280 284 285 293 258 249 255 263 262
324 316 318 302 303 286 251 238 256 290 301 259 244 206 211 224 245 250 244 244 207 222 213 249 244 261 263 266 271 271 302 289 296 289 305 279 284 282 288 290 251 240 234 243 250
323 314 308 301 297 274 256 231 225 244 339 1 74 137 205 221 162 220 213 217 243 221 221 227 266 277 272 268 276 264 273 278 303 284 300 282 287 288 287 251 260 233 231 234 238
315 312 300 295 282 276 241 187 189 203 276 202 225 292 253 198 155 99 198 217 250 265 236 252 253 262 259 271 260 269 251 268 279 281 294 272 276 295 277 284 248 222 223 230 230
308 304 298 287 253 258 234 188 186 216 135 279 249 253 289 183 189 203 228 218 221 234 247 242 249 244 248 256 255 230 245 251 308 293 233 282 291 278 271 276 270 223 224 228 227
305 297 294 273 236 233 213 198 211 105 42 13 327 233 227 180 196 194 207 220 228 245 269 266 292 240 232 243 245 242 233 204 202 210 272 307 261 306 279 236 235 206 214 222 225
306 292 279 259 230 222 212 215 218 39 358 357 21 208 237 253 240 210 227 240 235 247 227 229 258 255 260 277 235 238 236 236 259 259 289 281 301 318 187 193 171 190 207 215 229
309 306 251 120 216 225 229 232 233 249 2 9 328 219 276 335 355 246 232 246 243 248 256 259 261 268 304 239 213 221 229 217 236 212 282 309 323 281 187 174 173 192 206 248 238
311 280 163 339 219 292 266 261 275 276 331 332 313 309 321 322 301 322 274 253 275 272 247 246 244 258 277 281 218 219 231 230 242 247 187 268 306 147 177 215 221 230 224 220 236
305 234 214 356 345 309 288 298 294 245 252 323 287 289 294 300 299 296 277 287 279 336 266 242 236 239 270 268 277 249 242 235 225 243 234 249 260 301 256 216 176 180 203 210 222
270 227 258 350 339 340 284 278 296 295 278 318 286 273 266 285 307 252 269 285 274 303 324 292 229 235 243 252 253 248 245 240 236 240 250 238 280 133 149 162 198 203 141 13 222
212 180 200 229 263 285 293 280 282 258 274 281 315 283 286 280 273 280 279 272 280 277 289 294 270 228 229 232 242 192 210 256 334 280 273 255 258 206 233 259 272 252 244 249 233
279 229 205 214 231 251 264 294 302 300 289 289 266 286 292 282 277 277 273 269 271 277 264 258 272 269 259 234 234 258 263 259 291 316 250 305 271 209 277 258 229 217 164 180 192
272 251 247 245 243 250 266 262 305 294 285 280 279 260 285 286 273 280 270 275 278 256 258 229 259 263 273 268 259 266 274 272 263 273 281 289 303 266 270 222 212 219 217 211 217
311 293 280 263 253 252 238 254 266 283 256 263 282 275 257 278 271 261 264 263 269 284 276 273 294 299 299 271 280 270 265 279 280 273 273 289 258 273 258 257 216 220 224 226 224